[[{"header":{"parameterUnit":"m.s-1","parameterCategory":1,"la1":30.2991,"la2":30.254,"lo1":-89.0895,"lo2":-89.0444,"dy":0.0017,"dx":0.0017,"nx":28,"ny":28,"refTime":"2025-04-21T09:00:00:Z","depth":0,"parameterNumber":2,"parameterNumberName":"U-component_of_WINDS"},"data":[0,0,0,0,0,0,0,0,0,0,0,0,0,0,0,0,0,0,0,0,0,0,0,0,0,0,0,0,0,0,0,0,0,0,0,0,0,0,0,0,0,0,0,0,0,0,0,0,0,0,0,0,0,0,0,0,0,0,-1.3345,-1.3346,0,-1.3433,-1.3434,-1.3435,-1.3461,-1.346,-1.346,-1.3459,-1.3554,-1.3557,-1.3559,0,0,0,0,0,0,0,0,0,0,0,0,0,-1.3204,-1.3206,-1.3345,-1.3346,-1.3347,-1.3433,-1.3434,-1.3435,-1.3461,-1.346,-1.346,-1.3459,-1.3553,-1.3556,-1.356,0,0,0,0,0,0,0,0,0,0,0,0,0,-1.3276,-1.3207,-1.3345,-1.337,-1.3373,-1.3433,-1.3434,-1.3436,-1.3461,-1.346,-1.346,-1.3459,-1.3552,-1.3556,-1.356,-1.3602,0,0,-1.3574,-1.3576,0,0,0,0,0,0,0,0,-1.3272,-1.3281,-1.3365,-1.3369,-1.3372,-1.3435,-1.3419,-1.3492,-1.3461,-1.3428,-1.3459,-1.3459,-1.3515,-1.3523,-1.3541,-1.3606,-1.361,-1.3574,-1.3577,-1.3579,-1.358,0,0,0,0,0,0,0,-1.3267,-1.3278,-1.338,-1.3367,-1.3371,-1.3379,-1.3388,-1.3433,-1.3475,-1.3431,-1.3433,-1.3443,-1.3517,-1.3536,-1.3543,-1.3612,-1.3574,-1.3578,-1.3581,-1.3582,-1.3718,-1.3719,0,0,0,0,0,0,-1.3257,-1.3273,-1.3377,-1.3383,-1.3319,-1.3382,-1.3393,-1.3416,-1.3474,-1.3482,-1.3443,-1.3444,-1.3529,-1.3538,-1.3547,-1.36,-1.3579,-1.3583,-1.3585,-1.3717,-1.3719,-1.372,0,0,0,0,0,0,-1.3254,-1.3266,-1.3374,-1.3329,-1.3343,-1.3385,-1.3411,-1.3418,-1.3437,-1.3483,-1.3492,-1.3455,-1.3529,-1.354,-1.3588,-1.3604,-1.3585,-1.3589,-1.3716,-1.3718,-1.3719,-1.3707,0,0,0,0,0,0,-1.325,-1.3265,-1.328,-1.3329,-1.3345,-1.3412,-1.3412,-1.342,-1.3444,-1.3446,-1.3497,-1.3505,-1.3529,-1.3581,-1.3593,-1.361,-1.3592,-1.3715,-1.3717,-1.3719,-1.3707,-1.3708,-1.371,0,0,0,0,0,-1.3244,-1.3273,-1.328,-1.3293,-1.3365,-1.3413,-1.3423,-1.3449,-1.3446,-1.3462,-1.3492,-1.3503,-1.36,-1.3586,-1.3599,-1.3618,-1.3714,-1.3716,-1.3718,-1.3706,-1.3708,-1.371,0,0,0,0,0,0,-1.3226,-1.328,-1.3288,-1.3334,-1.3368,-1.3417,-1.3438,-1.345,-1.3488,-1.3488,-1.352,-1.3532,-1.3578,-1.3603,-1.3586,-1.3662,-1.3658,-1.3663,-1.3644,-1.3646,-1.3648,-1.3641,-1.3596,0,0,0,0,0,-1.3227,-1.3261,-1.3307,-1.3342,-1.3359,-1.3396,-1.3418,-1.3435,-1.3473,-1.3489,-1.3522,-1.3559,-1.3599,-1.3624,-1.3662,-1.371,-1.3723,-1.373,-1.3731,-1.3732,-1.3736,-1.3765,-1.3769,-1.3727,-1.3727,-1.3727,0,0,-1.323,-1.3264,-1.3283,-1.334,-1.3368,-1.3404,-1.3408,-1.3445,-1.3472,-1.3495,-1.3542,-1.3568,-1.3612,-1.366,-1.3683,-1.3682,-1.3751,-1.3735,-1.3736,-1.3739,-1.3768,-1.3772,-1.3775,-1.3728,-1.3728,-1.3728,0,0,-1.3254,-1.3282,-1.3315,-1.3344,-1.3387,-1.3412,-1.342,-1.3467,-1.3485,-1.3532,-1.355,-1.3584,-1.365,-1.3682,-1.3706,-1.3743,-1.3755,-1.3755,-1.3763,-1.3791,-1.3794,-1.3797,-1.3811,-1.3816,-1.3758,-1.3758,-1.3758,0,-1.3252,-1.3304,-1.3331,-1.3367,-1.3392,-1.3413,-1.3448,-1.3476,-1.353,-1.3548,-1.3546,-1.3631,-1.3662,-1.3718,-1.3727,-1.3746,-1.3758,-1.3749,-1.3791,-1.3795,-1.3798,-1.3812,-1.3817,-1.3758,-1.3758,-1.3758,-1.3758,0,-1.3301,-1.3338,-1.336,-1.341,-1.3438,-1.3474,-1.3507,-1.3532,-1.3548,-1.3573,-1.3622,-1.366,-1.3708,-1.3723,-1.3738,-1.3782,-1.378,-1.3784,-1.3781,-1.3801,-1.3815,-1.382,-1.3758,-1.3758,-1.3758,-1.3758,0,0,-1.3315,-1.338,-1.3388,-1.3412,-1.3462,-1.3492,-1.3529,-1.3574,-1.3596,-1.3633,-1.3666,-1.3723,-1.3727,-1.3755,-1.3775,-1.3799,-1.3827,-1.38,-1.3802,-1.3805,-1.3879,-1.3876,-1.3882,-1.3835,-1.3837,-1.3837,-1.3876,0,-1.3346,-1.3411,-1.3437,-1.3491,-1.3526,-1.3547,-1.358,-1.3615,-1.364,-1.3675,-1.3703,-1.3743,-1.3745,-1.3762,-1.3787,-1.3818,-1.3843,-1.3816,-1.3868,-1.387,-1.3857,-1.3889,-1.3886,-1.392,-1.3881,-1.3882,-1.3883,0,-1.3389,-1.3426,-1.3483,-1.353,-1.3546,-1.3575,-1.3619,-1.3651,-1.3692,-1.3709,-1.374,-1.3759,-1.3801,-1.3795,-1.3854,-1.3835,-1.3859,-1.3877,-1.388,-1.3886,-1.3878,-1.3897,-1.3931,-1.3937,-1.3891,-1.3891,-1.389,0,-1.3395,-1.3459,-1.3502,-1.3521,-1.3577,-1.3597,-1.3621,-1.3662,-1.3687,-1.3727,-1.3744,-1.3788,-1.3813,-1.3847,-1.3878,-1.387,-1.3935,-1.3931,-1.3951,-1.3951,-1.3964,-1.3963,-1.4004,-1.3978,-1.3978,-1.3978,-1.3978,0,-1.3426,-1.3461,-1.3505,-1.3531,-1.3571,-1.3601,-1.3641,-1.3667,-1.3703,-1.3736,-1.3758,-1.3789,-1.3827,-1.3864,-1.3888,-1.3935,-1.3945,-1.3961,-1.3967,-1.396,-1.3958,-1.3976,-1.3974,-1.3979,-1.3979,-1.3979,-1.3979,0,-1.3439,-1.347,-1.3518,-1.3567,-1.358,-1.3607,-1.365,-1.3677,-1.3703,-1.3745,-1.3757,-1.3798,-1.3843,-1.3877,-1.3935,-1.3951,-1.4001,-1.4007,-1.3986,-1.399,-1.4009,-1.4007,-1.4063,-1.4072,-1.4039,-1.404,-1.404,0,-1.3458,-1.3485,-1.3536,-1.3559,-1.3583,-1.362,-1.3646,-1.3677,-1.3704,-1.3754,-1.3776,-1.3822,-1.386,-1.393,-1.3967,-1.4012,-1.402,-1.4037,-1.4027,-1.4019,-1.4022,-1.402,-1.4023,-1.4038,-1.4038,-1.4038,-1.4038,0,-1.3487,-1.3501,-1.3538,-1.358,-1.361,-1.3645,-1.3681,-1.3699,-1.3737,-1.3767,-1.3812,-1.3841,-1.39,-1.3946,-1.3995,-1.4022,-1.4037,-1.4041,-1.4048,-1.4041,-1.4028,-1.4036,-1.3991,-1.404,-1.404,-1.4039,-1.4039,-1.4039,-1.3505,-1.353,-1.357,-1.361,-1.364,-1.3673,-1.3701,-1.3731,-1.3768,-1.3818,-1.3834,-1.3881,-1.3924,-1.3991,-1.4018,-1.4057,-1.4057,-1.4068,-1.407,-1.4073,-1.4072,-1.4021,-1.4066,-1.4066,-1.4066,-1.4066,-1.4066,0,-1.3536,-1.3563,-1.36,-1.3648,-1.368,-1.369,-1.373,-1.3757,-1.3798,-1.3835,-1.3872,-1.3925,-1.397,-1.401,-1.4057,-1.408,-1.4088,-1.4091,-1.409,-1.4097,-1.4069,-1.4058,-1.4084,-1.4084,-1.4084,-1.4084,-1.4084,-1.4084,-1.3557,-1.36,-1.3619,-1.3679,-1.3706,-1.3751,-1.3773,-1.3804,-1.3834,-1.3892,-1.3928,-1.3954,-1.3993,-1.4043,-1.4085,-1.4096,-1.4113,-1.4115,-1.4127,-1.4101,-1.4098,-1.4096,-1.4087,-1.4118,-1.4118,-1.4152,-1.4153,-1.4153]},{"header":{"parameterUnit":"m.s-1","parameterCategory":1,"la1":30.2991,"la2":30.254,"lo1":-89.0895,"lo2":-89.0444,"dy":0.0017,"dx":0.0017,"nx":28,"ny":28,"refTime":"2025-04-21T09:00:00:Z","depth":0,"parameterNumber":3,"parameterNumberName":"V-component_of_WINDS"},"data":[0,0,0,0,0,0,0,0,0,0,0,0,0,0,0,0,0,0,0,0,0,0,0,0,0,0,0,0,0,0,0,0,0,0,0,0,0,0,0,0,0,0,0,0,0,0,0,0,0,0,0,0,0,0,0,0,0,0,4.3852,4.3853,0,4.3947,4.3948,4.3949,4.3933,4.3932,4.393,4.3929,4.4022,4.4026,4.403,0,0,0,0,0,0,0,0,0,0,0,0,0,4.3654,4.3658,4.3852,4.3853,4.3854,4.3947,4.3948,4.3949,4.3934,4.3932,4.393,4.3928,4.4021,4.4026,4.4031,0,0,0,0,0,0,0,0,0,0,0,0,0,4.3744,4.3659,4.3852,4.3858,4.3859,4.3946,4.3948,4.395,4.3934,4.3932,4.3929,4.3927,4.402,4.4025,4.4031,4.4117,0,0,4.405,4.4052,0,0,0,0,0,0,0,0,4.3739,4.3751,4.3856,4.3857,4.3859,4.3926,4.3913,4.4006,4.3935,4.3906,4.3929,4.3926,4.3992,4.4,4.4023,4.4122,4.4126,4.405,4.4054,4.4056,4.4058,0,0,0,0,0,0,0,4.3732,4.3747,4.3889,4.3857,4.3859,4.3855,4.3865,4.393,4.3961,4.3908,4.3907,4.3919,4.3992,4.4017,4.4025,4.4127,4.405,4.4055,4.4059,4.4061,4.4301,4.4304,0,0,0,0,0,0,4.3725,4.3742,4.3886,4.3892,4.3792,4.386,4.3871,4.3907,4.396,4.3966,4.3921,4.3918,4.4008,4.4018,4.4029,4.4133,4.4056,4.4062,4.4066,4.4298,4.4302,4.4305,0,0,0,0,0,0,4.3721,4.3738,4.3882,4.3817,4.3835,4.3866,4.3906,4.391,4.3935,4.397,4.3975,4.3941,4.4007,4.402,4.4096,4.4136,4.4065,4.407,4.4295,4.4299,4.4303,4.4342,0,0,0,0,0,0,4.3715,4.3737,4.377,4.3818,4.3838,4.3949,4.3909,4.3914,4.3946,4.3943,4.399,4.3996,4.4006,4.4087,4.4102,4.4143,4.4075,4.4292,4.4297,4.4302,4.4337,4.4347,4.4355,0,0,0,0,0,4.3708,4.3777,4.3772,4.379,4.3881,4.3951,4.3963,4.3974,4.3949,4.3983,4.4005,4.3994,4.4129,4.4095,4.4111,4.4155,4.4289,4.4295,4.4301,4.4333,4.4345,4.4355,0,0,0,0,0,0,4.3732,4.3783,4.3778,4.3864,4.3904,4.3949,4.3991,4.3986,4.4033,4.4028,4.4039,4.405,4.4126,4.4148,4.4109,4.4241,4.4205,4.4215,4.4224,4.4236,4.4244,4.4237,4.408,0,0,0,0,0,4.3747,4.3801,4.3842,4.3914,4.3934,4.396,4.399,4.3996,4.4037,4.4053,4.4081,4.412,4.4171,4.4205,4.4254,4.4341,4.435,4.4379,4.4388,4.4395,4.4403,4.4451,4.4464,4.4325,4.4325,4.4325,0,0,4.3779,4.3814,4.3847,4.392,4.3951,4.4005,4.3974,4.4032,4.4072,4.4061,4.4135,4.4157,4.4201,4.4283,4.432,4.4303,4.4444,4.4403,4.4408,4.4413,4.4458,4.4471,4.4483,4.4329,4.4328,4.4328,0,0,4.3865,4.3897,4.3961,4.3993,4.4041,4.4057,4.4073,4.4119,4.4133,4.4207,4.42,4.4248,4.4336,4.4368,4.4395,4.4495,4.4486,4.451,4.4557,4.4603,4.4614,4.4624,4.4659,4.4671,4.4518,4.4518,4.4519,0,4.3899,4.3981,4.3993,4.4054,4.4086,4.408,4.4143,4.4174,4.4235,4.4257,4.4237,4.4348,4.4377,4.4467,4.4491,4.4514,4.4531,4.4504,4.4612,4.4622,4.4631,4.4664,4.4678,4.4521,4.4521,4.452,4.452,0,4.402,4.4077,4.4123,4.4183,4.422,4.4282,4.4303,4.4339,4.4341,4.436,4.4435,4.447,4.4527,4.4548,4.4551,4.4638,4.4626,4.4609,4.4574,4.4646,4.4678,4.4691,4.4525,4.4524,4.4523,4.4522,0,0,4.4123,4.419,4.4206,4.4234,4.4287,4.4331,4.4392,4.4448,4.4479,4.4521,4.4572,4.4648,4.4633,4.4664,4.467,4.4711,4.4787,4.4689,4.469,4.4706,4.4885,4.4897,4.4912,4.4782,4.4784,4.4786,4.4881,0,4.4214,4.4323,4.4336,4.4433,4.4485,4.4481,4.4534,4.4572,4.4591,4.4638,4.4658,4.4711,4.4687,4.4706,4.4747,4.4769,4.4823,4.4763,4.4829,4.4831,4.4817,4.4929,4.4941,4.5029,4.4894,4.4896,4.4897,0,4.4334,4.4381,4.4484,4.453,4.4552,4.46,4.4653,4.4698,4.4741,4.4751,4.4787,4.4788,4.4851,4.4813,4.4899,4.4858,4.4886,4.4901,4.4905,4.4911,4.4868,4.4937,4.5057,4.507,4.4917,4.4915,4.4914,0,4.4398,4.4488,4.456,4.4584,4.464,4.4673,4.4698,4.4738,4.4771,4.4817,4.4838,4.489,4.4919,4.4959,4.4973,4.4945,4.5059,4.5022,4.5069,4.5068,4.5092,4.509,4.5218,4.5111,4.5111,4.5111,4.511,0,4.4498,4.4561,4.459,4.4635,4.4705,4.4719,4.4788,4.4811,4.4847,4.4895,4.4894,4.4939,4.4956,4.5004,4.5016,4.5085,4.5098,4.5108,4.511,4.5108,4.5107,4.5126,4.512,4.5114,4.5113,4.5113,4.5112,0,4.4582,4.4604,4.4683,4.473,4.4743,4.4792,4.4832,4.4874,4.4893,4.4955,4.497,4.4999,4.5055,4.5074,4.5142,4.515,4.5231,4.5228,4.5217,4.5217,4.5262,4.5257,4.5406,4.5427,4.5306,4.5307,4.5308,0,4.4644,4.4692,4.4744,4.4777,4.4803,4.4856,4.4891,4.4906,4.4942,4.4994,4.5031,4.5087,4.5133,4.5223,4.525,4.5302,4.53,4.5349,4.5308,4.5304,4.53,4.5297,4.5302,4.5356,4.5357,4.5358,4.5359,0,4.4752,4.476,4.481,4.4864,4.4905,4.4948,4.4989,4.5016,4.5038,4.5078,4.5136,4.5172,4.5242,4.5298,4.5351,4.5375,4.5371,4.5372,4.5385,4.5383,4.5375,4.538,4.5237,4.5368,4.5367,4.5367,4.5366,4.5366,4.4826,4.4869,4.4913,4.4968,4.5001,4.504,4.5083,4.5107,4.5157,4.5216,4.5222,4.5285,4.5326,4.5397,4.5424,4.5473,4.5459,4.5479,4.5484,4.5488,4.5492,4.5367,4.5483,4.5483,4.5482,4.5482,4.5482,0,4.4934,4.4962,4.5013,4.5071,4.5115,4.5108,4.5154,4.519,4.5246,4.5286,4.5331,4.5398,4.5452,4.5484,4.5538,4.5571,4.557,4.5585,4.5582,4.5588,4.5501,4.5484,4.5584,4.5584,4.5584,4.5584,4.5584,4.5584,4.4995,4.5067,4.5081,4.5169,4.5196,4.5259,4.5286,4.5321,4.5353,4.5428,4.5474,4.5494,4.553,4.5587,4.5637,4.5644,4.5664,4.568,4.5686,4.5604,4.5594,4.5584,4.5568,4.5684,4.5684,4.5769,4.577,4.577]}]]